Location: Mauries
(43.6188°N, 0.3322°W)
Time: 18:54:26
(UTC+00:00)

USA 32 - Pass Details

Date: 14 January 2026
Orbit: 774 x 780 km, 85.0° (Epoch: 10 February)

Event Time Altitude Azimuth Distance (km) Brightness Sun altitude
Rises 06:40:36 0° 200° (SSW) 3,250 7.3 -9.3°
Reaches altitude 10° 06:43:02 10° 207° (SSW) 2,327 6.5 -8.9°
Maximum altitude 06:48:03 46° 280° (W) 1,045 4.3 -8.0°
Drops below altitude 10° 06:53:06 10° 353° (N) 2,343 6.2 -7.2°
Sets 06:55:34 0° 360° (N) 3,275 7.0 -6.8°
